Temperature
13 13 12 12 12 12 11 11 11 11 11 11 11 11 12 12 12 13 13 13 14 14 14 14 14 14 14 14 14 14 14 13 13 13 13 13 13 13 13 13 13 14 14
12 12 12 12 11 11 11 11 11 10 10 10 10 10 11 11 12 12 12 13 13 13 14 14 14 14 14 14 14 14 14 14 13 13 13 13 13 13 13 13 13 13 13
12 12 12 11 11 11 11 11 10 10 10 10 10 10 10 10 11 11 11 12 12 13 13 13 13 13 14 14 14 14 14 14 13 13 13 13 13 12 12 12 12 12 12
12 12 11 11 11 11 11 10 10 10 10 10 9 9 9 9 10 10 11 11 12 12 12 13 13 13 14 14 14 14 14 14 13 13 13 13 12 12 12 12 11 11 11
11 11 11 11 11 11 10 10 10 10 10 10 9 9 9 9 9 9 10 10 11 11 12 12 13 13 13 13 14 14 14 13 13 13 12 12 12 12 12 11 11 11 11
11 11 11 11 10 10 10 10 10 10 10 9 9 9 9 9 9 9 9 9 10 10 11 12 12 13 13 13 13 13 13 13 13 13 12 12 12 12 11 11 11 11 10
10 10 10 10 10 10 10 9 9 9 9 9 9 9 9 9 9 9 9 9 9 10 10 11 12 12 13 13 13 13 13 13 13 13 13 12 12 12 11 11 11 11 11
9 9 9 9 9 9 9 9 9 9 9 9 9 9 9 9 9 9 9 9 9 9 10 10 11 12 12 12 13 13 12 12 12 12 13 13 12 12 12 12 11 11 10
7 7 7 7 7 7 8 8 8 8 8 8 8 8 8 8 8 9 8 8 9 9 9 10 10 11 12 12 12 12 12 12 12 12 12 12 12 12 11 11 10 10 9
6 6 6 6 6 6 6 7 7 7 7 8 8 8 8 8 8 8 8 8 8 9 9 10 10 11 11 11 12 12 12 12 12 11 11 11 11 11 11 11 11 11 10
5 5 5 5 5 5 6 6 6 6 7 7 7 7 7 8 8 8 8 8 8 8 9 9 10 10 11 11 11 12 12 12 11 11 11 11 11 11 11 11 11 11 11
5 5 5 5 5 5 5 5 5 6 6 6 6 7 7 7 8 8 8 8 8 8 8 9 9 10 10 11 11 11 11 11 11 11 11 11 11 11 11 11 11 11 11
5 5 5 5 5 5 5 5 5 5 5 6 6 6 7 7 8 8 8 8 8 8 8 9 9 9 10 10 10 11 11 11 11 11 11 11 11 11 11 11 11 11 11
5 5 5 5 5 5 5 5 5 5 5 6 6 6 7 7 7 8 8 8 8 8 8 8 8 9 9 10 10 10 11 11 11 11 11 10 10 11 11 11 11 11 11
5 5 5 5 5 5 5 5 5 5 5 6 6 6 6 7 7 8 8 8 8 8 8 8 8 8 9 9 10 10 10 11 11 11 10 10 10 10 11 11 11 11 11
5 5 5 5 5 5 5 5 5 5 5 6 6 6 6 7 7 7 7 8 8 8 7 7 7 8 8 9 9 10 10 10 10 10 10 10 10 10 10 10 10 10 11
5 5 5 5 5 5 5 5 5 5 6 6 6 6 6 7 7 7 7 7 7 7 7 7 7 8 8 9 9 10 10 10 10 11 11 10 10 10 10 10 10 10 10
6 6 6 5 5 5 5 5 5 6 6 6 6 6 6 7 7 7 7 7 7 6 7 7 7 8 9 9 10 10 10 10 10 11 10 10 10 10 10 10 10 10 10
6 6 6 6 6 6 6 6 6 6 6 6 6 6 6 6 6 6 6 6 6 6 7 7 7 8 9 10 10 10 10 11 11 11 10 10 10 10 10 10 10 10 10
7 7 6 6 6 6 6 6 6 6 6 6 6 6 6 6 6 6 6 6 6 6 7 7 8 8 9 10 10 10 11 11 11 11 10 10 10 10 10 10 10 10 10
7 7 7 7 7 7 7 7 6 6 6 6 6 6 6 6 6 6 6 6 6 7 7 7 8 9 10 10 10 11 11 11 11 11 10 10 10 10 10 11 11 11 10
7 7 7 7 7 7 7 7 7 7 7 6 6 6 6 6 6 6 6 7 7 7 8 8 9 10 10 10 11 11 11 11 11 11 11 11 11 11 11 11 11 11 11
7 7 7 7 7 7 7 7 7 7 7 7 7 7 6 7 7 7 7 7 8 8 9 10 10 10 11 11 11 11 11 11 11 11 11 11 11 11 11 11 11 11 11
7 7 7 7 7 7 7 7 7 7 7 7 7 7 7 7 7 8 8 9 9 9 10 10 11 11 11 11 11 11 11 11 11 11 11 11 11 11 11 11 11 11 11
8 7 7 7 7 7 7 7 7 7 7 7 7 7 7 8 8 8 9 9 10 10 11 11 11 12 12 12 11 11 11 11 11 11 11 11 11 11 11 11 11 11 11
8 8 8 8 7 7 7 7 7 7 7 7 8 8 8 8 9 9 9 10 10 11 11 12 12 12 12 12 12 12 11 11 11 11 11 11 11 11 11 11 11 11 11
Wind_Speed
8 8 8 8 8 7 6 7 7 6 6 6 6 7 7 7 7 6 7 8 8 8 7 7 8 7 5 5 5 5 5 5 5 2 2 4 6 9 8 9 11 10 12
10 10 10 10 9 8 9 9 8 8 7 7 7 7 7 7 7 6 8 8 8 9 8 8 8 7 7 5 5 5 5 5 5 5 4 4 5 10 10 10 8 10 11
11 11 11 11 11 11 11 11 10 9 9 8 7 8 8 7 7 7 7 8 8 9 8 8 8 7 7 5 5 5 4 5 5 6 5 4 4 9 10 10 10 8 10
11 11 12 13 13 13 12 12 11 10 10 10 9 9 9 8 8 7 7 7 7 8 8 8 8 8 8 7 6 5 4 5 6 7 7 6 6 8 10 10 9 7 7
11 12 13 14 13 13 12 12 12 11 12 11 10 9 9 8 8 7 6 6 6 7 7 7 8 10 10 8 6 6 6 6 6 8 8 7 8 10 9 7 10 9 6
11 12 12 12 12 12 12 12 12 12 12 11 10 10 10 9 11 12 8 6 6 7 7 7 7 8 10 10 10 10 10 9 9 8 7 10 10 10 9 12 12 10 5
11 11 11 11 12 12 12 11 11 12 11 11 11 10 10 11 14 14 13 7 7 7 7 7 7 7 8 6 7 8 8 11 12 9 11 11 12 12 13 12 10 7 6
11 11 11 11 11 11 11 11 10 9 9 9 10 10 10 11 14 15 14 8 7 7 7 8 9 8 9 9 7 6 5 6 8 8 9 9 11 12 12 12 11 9 8
13 12 11 10 11 10 10 10 9 8 8 8 7 10 10 11 14 14 13 6 6 7 7 8 10 10 12 13 10 8 7 5 7 11 13 13 15 15 14 11 11 12 10
14 13 12 11 11 11 11 9 8 8 9 9 9 9 10 10 13 15 13 6 6 6 6 7 11 13 15 15 11 11 11 8 10 11 12 13 13 14 15 12 12 13 11
15 14 14 13 12 12 11 9 9 8 8 8 9 9 9 11 12 15 14 7 7 6 5 5 7 14 16 17 14 11 13 12 11 11 10 10 9 8 8 8 9 12 11
16 15 15 13 12 12 9 9 8 8 9 8 8 8 7 8 11 12 15 14 10 7 5 4 5 13 16 17 13 13 16 14 10 10 10 9 8 7 6 7 8 7 7
15 15 14 13 11 10 9 9 8 7 7 7 7 7 7 6 8 13 14 14 13 7 5 5 5 11 16 14 15 18 16 11 11 10 10 7 6 7 7 8 8 8 7
14 13 11 10 9 9 8 7 7 6 7 7 7 7 6 5 5 5 5 6 8 7 5 5 5 10 12 11 14 14 10 10 11 10 8 6 6 6 8 8 8 8 7
13 11 10 8 8 7 6 6 7 7 7 7 7 6 6 6 8 10 8 7 7 7 6 4 4 7 9 9 10 9 8 10 10 8 9 8 7 7 6 6 6 6 6
11 9 7 6 5 5 4 4 6 7 9 12 10 7 5 7 8 11 11 10 10 11 8 5 7 8 11 12 12 9 8 10 10 10 10 9 8 8 6 5 5 7 7
10 8 6 5 4 3 3 3 2 1 1 4 6 7 7 7 9 10 10 9 10 12 6 6 7 9 10 11 11 9 7 9 9 11 11 10 9 8 7 7 6 6 6
10 8 6 4 3 2 2 2 2 2 2 1 1 4 6 8 8 9 9 8 6 7 5 6 7 8 9 10 10 8 9 10 10 10 10 9 8 8 7 7 7 6 6
9 6 4 4 3 2 1 1 1 2 3 3 3 3 5 7 7 7 8 5 6 6 6 5 6 7 8 9 9 9 10 10 10 9 9 9 8 8 7 7 7 9 6
8 10 7 3 3 2 1 1 1 2 3 4 4 4 4 4 4 4 4 3 5 6 6 5 6 6 7 8 9 9 10 10 10 8 8 8 8 8 9 9 8 8 6
8 7 8 4 3 2 1 1 2 2 3 3 3 4 6 4 4 5 4 4 5 5 5 5 5 6 7 7 9 10 11 9 9 8 8 8 8 7 7 8 9 8 7
6 6 5 4 3 3 2 2 3 3 4 4 4 4 6 3 3 4 4 4 3 4 4 4 5 6 7 8 9 10 10 9 9 8 8 8 7 7 7 7 7 7 8
6 6 5 4 3 4 4 3 3 4 4 5 4 4 4 4 4 4 3 3 3 3 3 4 5 6 6 7 8 10 10 10 9 10 9 8 8 7 7 7 8 8 8
6 5 5 4 3 3 3 4 4 5 4 4 4 4 4 3 3 3 3 3 3 4 4 4 6 9 10 8 7 7 7 8 9 9 11 10 8 7 7 7 8 9 8
5 4 4 3 3 3 3 4 4 4 4 4 4 3 3 4 4 4 3 3 3 4 4 5 6 9 11 12 10 8 12 14 12 10 8 8 9 8 8 8 7 6 6
5 4 3 2 2 2 3 3 4 4 4 3 4 4 4 4 4 3 3 3 3 3 4 4 7 9 11 10 11 14 14 14 14 14 9 8 8 7 7 6 8 7 7
Wind_Direction
234 238 241 242 241 241 249 258 264 272 285 296 302 306 307 305 302 285 265 252 242 242 242 236 238 233 234 235 226 218 208 197 211 204 180 148 135 131 119 112 108 103 103
235 237 241 244 243 242 245 248 250 256 264 269 276 284 290 295 299 297 291 279 258 247 242 236 239 236 232 232 228 225 213 195 188 185 170 155 140 140 130 120 110 104 102
239 238 243 245 243 242 243 244 242 244 251 256 258 263 269 276 281 284 286 286 274 256 241 231 232 225 231 231 228 226 213 196 180 170 165 146 135 140 129 117 111 105 101
243 239 241 244 243 242 242 242 240 237 240 245 247 250 255 262 268 273 279 284 283 271 251 232 224 218 221 221 224 219 197 178 169 164 157 149 142 140 133 129 120 111 106
242 239 239 240 241 241 240 240 239 237 239 238 240 244 247 251 256 256 262 280 286 285 269 240 224 218 213 210 211 205 182 175 170 165 158 152 150 151 144 136 129 117 95
244 242 240 239 238 236 236 236 236 236 238 236 235 237 241 249 253 257 259 265 272 276 271 253 230 214 211 210 211 203 186 177 176 170 164 162 159 150 140 142 138 134 122
258 253 246 239 236 234 235 233 231 233 234 233 233 231 234 240 246 252 257 253 256 264 260 247 227 209 194 191 195 191 189 184 177 171 166 164 160 156 149 148 149 138 129
277 270 261 251 244 236 230 228 228 227 225 228 231 229 230 239 239 243 249 247 248 255 254 242 224 200 194 182 171 163 160 163 168 166 160 156 154 153 152 150 144 119 110
288 282 278 272 264 249 235 228 224 222 224 224 224 224 225 237 239 240 241 235 241 253 259 250 223 201 193 178 167 157 144 138 137 139 138 139 143 146 146 142 141 138 140
293 288 282 274 270 260 245 235 229 223 226 226 227 223 222 230 237 237 234 219 235 250 262 257 224 202 187 177 170 161 153 146 135 127 124 127 136 145 150 154 155 151 146
291 286 281 273 265 261 251 241 234 231 227 225 226 226 225 228 234 234 227 207 217 232 247 256 226 199 184 179 170 168 160 147 138 132 128 127 127 134 143 148 155 157 155
291 286 281 272 267 268 252 243 233 226 225 225 225 231 232 230 229 232 225 215 210 212 229 241 232 195 185 176 170 160 148 140 136 132 131 133 136 138 140 141 143 144 151
292 288 282 274 263 258 252 246 237 224 222 222 218 225 233 231 230 229 224 220 213 206 217 226 230 195 182 177 166 156 151 145 142 140 140 138 134 133 126 117 109 107 90
293 289 285 277 265 256 250 241 234 225 221 219 215 220 226 226 222 212 205 206 205 207 215 219 196 185 181 171 162 160 157 151 146 143 138 130 120 119 125 128 127 119 101
300 294 289 279 267 258 248 238 231 225 216 212 213 209 208 219 220 199 182 184 186 189 176 167 167 179 175 167 164 158 147 142 137 136 137 134 130 125 123 121 124 117 117
313 308 299 288 277 263 252 256 239 235 236 226 219 203 206 207 193 185 184 181 178 172 166 170 179 181 172 167 164 154 146 147 146 144 145 145 143 139 130 120 119 125 129
317 314 307 298 291 279 252 241 251 282 269 217 208 201 194 173 168 170 176 175 176 168 171 171 177 176 167 164 162 153 146 148 147 148 150 150 147 141 136 133 127 126 130
327 327 328 312 305 292 266 243 205 176 148 100 100 153 163 159 158 162 164 156 167 175 173 168 172 167 160 159 155 146 143 146 147 149 150 150 147 144 143 146 146 144 142
332 328 327 329 331 326 294 221 171 160 147 136 116 99 118 127 130 152 165 169 167 167 165 160 157 155 150 152 149 146 147 150 151 151 153 154 152 147 151 157 159 159 147
332 338 347 343 349 356 9 92 126 130 135 142 149 146 142 136 139 153 167 164 154 149 147 146 147 146 144 147 148 147 148 149 150 150 154 155 155 153 155 158 160 162 163
335 338 351 355 352 353 3 45 117 124 135 142 146 153 157 154 157 159 159 151 142 142 144 142 148 153 150 147 147 148 148 152 154 154 154 154 152 151 153 155 160 161 159
336 337 345 350 352 7 27 63 92 109 117 117 113 125 145 135 139 140 140 142 142 146 153 156 165 165 159 154 150 148 149 151 154 153 151 151 151 151 149 148 150 154 159
338 343 349 352 1 26 49 66 86 98 103 108 116 120 127 127 134 138 140 143 139 144 160 168 162 155 151 152 152 154 156 159 159 154 150 148 150 154 153 154 156 155 163
334 344 354 360 13 39 62 74 85 95 101 105 108 111 114 118 125 126 117 111 118 124 131 147 151 149 147 148 150 150 150 150 148 151 148 150 152 154 156 158 161 168 174
334 346 360 9 22 42 71 86 95 98 105 111 112 110 106 107 106 97 86 80 91 97 102 119 135 142 146 148 150 147 148 148 149 149 143 146 151 154 158 163 166 167 172
346 348 356 7 23 45 75 90 100 107 108 108 106 105 102 101 97 87 78 72 82 79 85 100 123 131 138 143 146 148 152 156 158 155 149 144 149 157 159 164 171 175 177
Height
1479 1477 1475 1472 1470 1468 1466 1464 1462 1460 1458 1457 1455 1454 1454 1454 1454 1455 1455 1456 1456 1457 1457 1456 1456 1456 1455 1455 1454 1453 1453 1454 1456 1457 1459 1461 1462 1464 1465 1467 1469 1471 1473
1474 1471 1469 1466 1463 1461 1460 1458 1456 1455 1453 1451 1450 1449 1448 1447 1447 1447 1448 1448 1449 1449 1450 1451 1450 1451 1450 1450 1449 1448 1448 1449 1451 1452 1455 1457 1459 1462 1464 1466 1468 1470 1473
1466 1463 1461 1459 1456 1454 1453 1452 1450 1449 1447 1446 1445 1443 1442 1441 1441 1440 1440 1441 1441 1442 1443 1444 1444 1445 1445 1444 1444 1443 1443 1444 1446 1448 1450 1454 1456 1459 1462 1465 1467 1470 1472
1457 1454 1452 1450 1448 1446 1445 1444 1443 1442 1441 1440 1439 1437 1436 1435 1434 1434 1434 1434 1434 1435 1436 1437 1438 1439 1439 1439 1438 1438 1438 1439 1441 1443 1446 1450 1453 1456 1460 1462 1466 1470 1472
1448 1445 1443 1441 1439 1437 1436 1435 1434 1433 1432 1432 1431 1431 1430 1429 1428 1428 1427 1427 1427 1428 1429 1430 1431 1433 1433 1434 1433 1433 1433 1434 1436 1439 1442 1446 1449 1453 1457 1461 1464 1469 1472
1437 1434 1432 1430 1429 1427 1426 1425 1424 1424 1424 1424 1423 1423 1423 1423 1422 1422 1421 1421 1421 1421 1422 1423 1425 1426 1427 1428 1428 1428 1429 1430 1432 1434 1437 1441 1445 1450 1454 1458 1463 1466 1471
1426 1423 1421 1419 1417 1416 1415 1415 1414 1414 1414 1414 1414 1415 1415 1415 1416 1415 1415 1415 1414 1414 1415 1416 1418 1420 1421 1423 1423 1424 1425 1426 1429 1431 1433 1437 1442 1446 1451 1456 1462 1466 1469
1414 1411 1409 1407 1405 1404 1404 1403 1404 1404 1404 1405 1405 1406 1406 1407 1408 1408 1409 1408 1408 1408 1409 1410 1412 1413 1415 1417 1419 1420 1421 1423 1425 1429 1432 1436 1441 1446 1451 1456 1461 1467 1472
1402 1399 1396 1394 1392 1391 1391 1392 1392 1393 1394 1395 1396 1397 1398 1399 1400 1401 1402 1401 1401 1402 1402 1404 1405 1407 1410 1412 1414 1416 1418 1420 1424 1428 1431 1435 1441 1446 1451 1456 1461 1466 1471
1391 1387 1384 1382 1380 1379 1379 1380 1381 1382 1384 1385 1386 1388 1389 1391 1392 1393 1394 1395 1395 1396 1396 1397 1399 1401 1404 1407 1410 1413 1415 1417 1421 1425 1430 1435 1440 1445 1450 1455 1459 1464 1468
1380 1376 1372 1370 1368 1367 1367 1368 1370 1371 1373 1375 1377 1379 1381 1382 1384 1386 1387 1388 1389 1390 1390 1391 1393 1395 1399 1403 1407 1410 1413 1416 1420 1424 1429 1434 1439 1445 1450 1455 1460 1464 1467
1370 1365 1361 1359 1357 1357 1357 1357 1359 1361 1363 1365 1368 1370 1372 1374 1376 1378 1380 1381 1383 1384 1385 1386 1387 1391 1394 1399 1404 1408 1412 1415 1419 1424 1428 1433 1439 1444 1450 1455 1460 1465 1469
1361 1356 1352 1349 1348 1347 1348 1348 1350 1352 1354 1356 1359 1361 1364 1366 1369 1371 1373 1374 1376 1378 1379 1380 1382 1385 1390 1396 1401 1406 1411 1414 1418 1423 1428 1433 1439 1444 1450 1455 1460 1465 1469
1353 1348 1344 1341 1340 1340 1340 1341 1342 1344 1346 1349 1352 1355 1357 1359 1362 1364 1366 1368 1370 1372 1374 1375 1377 1380 1386 1392 1399 1405 1410 1414 1418 1423 1429 1434 1440 1445 1450 1454 1459 1463 1468
1348 1342 1338 1336 1334 1334 1334 1335 1336 1338 1341 1344 1346 1349 1352 1354 1357 1359 1361 1363 1365 1367 1369 1371 1373 1376 1381 1388 1395 1402 1408 1414 1419 1425 1429 1434 1440 1445 1449 1454 1458 1463 1467
1344 1339 1335 1333 1331 1330 1330 1331 1333 1335 1337 1339 1342 1345 1348 1350 1353 1355 1357 1359 1361 1363 1365 1367 1369 1373 1379 1385 1393 1400 1407 1413 1419 1425 1430 1435 1440 1444 1449 1454 1458 1463 1467
1344 1339 1335 1332 1330 1329 1330 1330 1331 1333 1335 1337 1339 1342 1345 1347 1349 1352 1354 1356 1357 1359 1361 1363 1366 1371 1377 1384 1392 1399 1406 1413 1419 1425 1430 1435 1440 1445 1449 1453 1458 1462 1466
1345 1340 1336 1333 1332 1330 1330 1330 1331 1332 1334 1336 1338 1340 1343 1345 1347 1348 1350 1352 1354 1356 1359 1361 1365 1370 1377 1385 1393 1400 1407 1414 1420 1425 1430 1436 1440 1444 1449 1453 1458 1462 1466
1347 1342 1339 1336 1334 1333 1332 1332 1332 1333 1334 1336 1337 1339 1341 1343 1344 1346 1348 1349 1351 1354 1357 1361 1365 1372 1380 1388 1395 1402 1408 1414 1420 1426 1431 1436 1441 1445 1449 1454 1458 1462 1466
1350 1346 1342 1339 1337 1336 1335 1334 1334 1335 1335 1336 1337 1339 1340 1342 1344 1345 1347 1349 1352 1354 1358 1362 1369 1376 1383 1390 1397 1404 1410 1416 1421 1427 1432 1436 1441 1446 1450 1454 1458 1462 1465
1353 1349 1346 1343 1340 1339 1338 1337 1336 1336 1336 1337 1338 1340 1341 1342 1344 1346 1348 1351 1354 1357 1361 1367 1373 1380 1387 1393 1400 1406 1411 1417 1422 1427 1432 1437 1441 1446 1450 1454 1458 1461 1465
1355 1352 1349 1346 1344 1342 1340 1340 1339 1338 1339 1339 1340 1341 1343 1344 1346 1348 1351 1354 1358 1362 1368 1373 1379 1384 1390 1396 1402 1408 1413 1418 1423 1428 1433 1437 1442 1446 1450 1454 1457 1461 1464
1357 1354 1351 1349 1347 1345 1344 1343 1342 1342 1342 1343 1344 1345 1346 1348 1351 1353 1357 1360 1364 1369 1374 1378 1383 1388 1394 1400 1405 1410 1414 1419 1423 1428 1433 1437 1442 1446 1450 1453 1457 1460 1463
1358 1355 1353 1352 1350 1349 1348 1347 1346 1346 1347 1347 1348 1349 1351 1353 1356 1359 1362 1366 1370 1374 1379 1383 1388 1392 1397 1402 1407 1412 1416 1420 1425 1429 1433 1438 1442 1446 1449 1453 1456 1459 1462
1359 1357 1355 1354 1353 1352 1351 1351 1351 1351 1351 1352 1353 1355 1356 1359 1362 1365 1369 1373 1376 1380 1384 1388 1392 1396 1401 1405 1409 1413 1418 1422 1426 1430 1434 1438 1442 1445 1448 1452 1455 1458 1461
1361 1358 1357 1355 1355 1354 1354 1354 1354 1355 1355 1357 1358 1360 1363 1365 1369 1372 1375 1379 1383 1386 1389 1393 1397 1400 1404 1408 1412 1416 1419 1423 1427 1431 1434 1438 1441 1445 1448 1451 1453 1456 1458